Location: Hilton Head Island
(32.2163°N, 80.7526°W)
Time: 19:50:29
(UTC-05:00)

Transit 2A - Pass Details

Date: 23 February 2026
Orbit: 590 x 954 km, 66.7° (Epoch: 7 March)

Event Time Altitude Azimuth Distance (km) Brightness Sun altitude
Rises 20:39:30 0° 337° (NNW) 3,487 9.8 -31.0°
Reaches altitude 10° 20:42:08 10° 340° (NNW) 2,496 8.9 -31.6°
Enters shadow 20:44:54 28° 347° (NNW) 1,499 7.6 -32.2°
